Regional Weather Roundup
Issued by NWS

Home | Current Version | Previous Version | Text Only | Print | Product List | Glossary Off
Versions: 1 2 3 4 5 6 7 8 9 10 11 12 13 14 15 16 17 18 19 20 21 22 23 24 25 26 27 28 29 30 31 32 33 34 35 36 37 38 39 40 41 42 43 44 45 46 47 48 49 50

000
ASUS43 KIND 030309
RWRIN

WEATHER ROUNDUP FOR INDIANA
NATIONAL WEATHER SERVICE INDIANAPOLIS IN
1100 PM EDT TUE SEP 02 2014

NOTE: "FAIR" INDICATES FEW OR NO CLOUDS BELOW 12,000 FEET WITH NO
SIGNIFICANT WEATHER AND/OR OBSTRUCTIONS TO VISIBILITY.

* - STATION DOES NOT REPORT WEATHER SUCH AS PRECIPITATION OR FOG.

+ - STATION NOT QUALITY CONTROLLED BY THE NATIONAL WEATHER SERVICE.
    USE DATA WITH CAUTION...ESPECIALLY DEWPOINT AND RELATIVE
    HUMIDITY OBSERVATIONS.

INZ001>003-010>013-019-020-030400-
NORTHWEST INDIANA

CITY           SKY/WX    TMP DP  RH WIND       PRES   REMARKS
GARY /AIRPORT/ PTCLDY    66  64  93 CALM      29.95R
KNOX *+        MOCLDY    67  63  88 CALM      29.95R
LA PORTE +     PTCLDY    64  64 100 CALM      29.96S
MICHIGAN CITY+ PTCLDY    63  63 100 CALM      29.96R
MONTICELLO +   CLEAR     68  68  98 CALM      29.97R
RENSSELAER +   CLEAR     64  64 100 S3        29.97R
VALPARAISO     CLEAR     68  64  87 CALM      29.96R

$$

LMZ046-743>745-030400-
SOUTHERN LAKE MICHIGAN

STATION/POSITION TIME  TEMP WIND        PRES
                       AIR  DIR/SP/G
                 (UTC) (F)  (DEG/KT/KT) (MB)
MICHIGAN CITY    0300   71  130/  7/  8   N/A

$$

INZ004-005-014>016-021>024-030400-
NORTH CENTRAL INDIANA

CITY           SKY/WX    TMP DP  RH WIND       PRES   REMARKS
GOSHEN         CLEAR     65  62  90 CALM      29.97R
LOGANSPORT +   CLEAR     64  63  94 S5        29.98R
PERU/GRISSOM   PTCLDY    66  66 100 SW7       29.98R
ROCHESTER +    CLEAR     72  66  83 S3        29.97R
SOUTH BEND     CLEAR     67  61  81 SE3       29.96R
WARSAW +       CLEAR     63  63 100 CALM      29.97R

$$

INZ006>009-017-018-025>027-030400-
NORTHEAST INDIANA

CITY           SKY/WX    TMP DP  RH WIND       PRES   REMARKS
ANGOLA *+      CLEAR     63  55  77 CALM      29.97S
AUBURN +       PTCLDY    64  61  88 CALM      29.98R
FORT WAYNE     PTCLDY    65  64  97 CALM      29.97R
HUNTINGTON +   PTCLDY    68  67  96 SW3       29.97R

$$

INZ028-029-035-036-043>045-051>053-030400-
WEST CENTRAL INDIANA

CITY           SKY/WX    TMP DP  RH WIND       PRES   REMARKS
GREENCASTLE +    N/A     64  64 100 CALM      30.01R FOG
LAFAYETTE      CLEAR     68  68 100 CALM      29.97R
TERRE HAUTE    CLEAR     67  66  97 CALM      30.00R

$$

INZ030>032-037>040-046>048-054>057-064-065-030400-
CENTRAL INDIANA

CITY           SKY/WX    TMP DP  RH WIND       PRES   REMARKS
CP ATTERBURY + FOG       66  64  94 CALM      30.01R VSB<1/4
FISHERS *+     CLEAR     64  64 100 CALM      29.99R
FRANKFORT +    PTCLDY   N/A N/A N/A S3        30.00R
GREENWOOD *+   CLEAR     68  68 100 CALM      30.01R
INDIANAPOLIS   CLEAR     68  65  90 SW8       29.99R
-EAGLE CREEK   CLEAR     68  65  90 CALM      29.99R
KOKOMO *+      PTCLDY    66  64  94 SW6       29.98R
MARION +       PTCLDY    66  65  95 SW3       29.99R FOG
MT COMFORT *+  CLEAR     64 N/A N/A CALM      30.01R
SHELBYVILLE    CLEAR     68  65  90 CALM      30.00R
ZIONSVILLE +   CLEAR     67  64  89 CALM      30.00R FOG

$$

INZ033-034-041-042-049-050-058-059-030400-
EAST CENTRAL INDIANA

CITY           SKY/WX    TMP DP  RH WIND       PRES   REMARKS
MUNCIE         CLEAR     70  65  84 SW3       29.98R

$$

INZ060-061-067>069-081>083-085>088-030400-
SOUTHWEST INDIANA

CITY           SKY/WX    TMP DP  RH WIND       PRES   REMARKS
EVANSVILLE     PTCLDY    73  69  87 CALM      30.00R
WASHINGTON +   CLEAR     66  66 100 CALM      30.00R

$$

INZ062-063-066-070>080-084-089>092-030400-
SOUTH CENTRAL AND SOUTHEAST INDIANA

CITY           SKY/WX    TMP DP  RH WIND       PRES   REMARKS
BEDFORD +        N/A     68  64  88 CALM      30.01R FOG
BLOOMINGTON    MOCLDY    66  65  96 CALM      30.02R FOG
NORTH VERNON + FOG       66  66 100 CALM      30.01R VSB 1/4

$$




USA.gov is the U.S. government's official web portal to all federal, state and local government web resources and services.